Location: Honolulu
(21.3069°N, 157.8583°W)
Time: 07:21:17
(UTC-10:00)

Tiros 1 despin weight - Pass Details

Date: 18 May 2026
Orbit: 554 x 591 km, 48.2° (Epoch: 10 June)

Event Time Altitude Azimuth Distance (km) Brightness Sun altitude
Exits shadow 03:40:27 19° 344° (NNW) 1,380 ? -27.6°
Drops below altitude 10° 03:42:31 10° 11° (N) 1,857 ? -27.2°
Sets 03:45:11 0° 27° (NNE) 2,747 ? -26.7°
